Regional Weather Roundup
Issued by NWS State College, PA

Home | Current Version | Previous Version | Text Only | Print | Product List | Glossary On
Versions: 1 2 3 4 5 6 7 8 9 10 11 12 13 14 15 16 17 18 19 20 21 22 23 24 25 26 27 28 29 30 31 32 33 34 35 36 37 38 39 40 41 42 43 44 45 46 47 48 49 50
000
ASUS41 KCTP 252210
RWRCTP

REGIONAL WEATHER ROUNDUP
NATIONAL WEATHER SERVICE STATE COLLEGE PA
600 PM EDT SUN SEP 25 2016

Note: "fair" indicates few or no clouds below 12,000 feet with no
significant weather and/or obstructions to visibility.

* = STATION THAT DOES NOT REPORT PRECIPITATION /E.G. RAIN...SNOW...ETC/
    THUNDER OR FOG.

PAZ002>004-007>009-013>016-020>023-029>032-252300-
WESTERN PENNSYLVANIA

CITY           SKY/WX    TMP DP  RH WIND       PRES   REMARKS
ERIE           SUNNY     66  49  54 NE10      30.13S
MEADVILLE      SUNNY     67  41  38 E3        30.13F
FRANKLIN*        N/A     66  45  45 E3        30.14S
NEW CASTLE     FAIR      72  45  37 N3        30.12F
BEAVER COUNTY  NOT AVBL
BUTLER*        SUNNY     70  43  37 E5        30.15S
PITTSBURGH INT PTSUNNY   75  45  34 NE7       30.10F
PITTSBURGH     SUNNY     74  45  35 VRB3      30.10F
INDIANA*       SUNNY     70  46  43 NE5       30.15S
LATROBE        SUNNY     72  48  43 CALM      30.12S
WASHINGTON CO* SUNNY     73  46  38 CALM      30.12S
$$

PAZ004>006-010>012-017>019-024>028-033>037-041-042-045-046-049>053-252300-
CENTRAL PENNSYLVANIA

CITY           SKY/WX    TMP DP  RH WIND       PRES   REMARKS
BRADFORD       SUNNY     63  40  42 E5        30.15F
DUBOIS         SUNNY     67  41  38 CALM      30.13S
CLEARFIELD     SUNNY     67  41  38 CALM      30.15S
JOHNSTOWN      SUNNY     68  47  46 CALM      30.14S
ALTOONA        SUNNY     70  40  33 E3        30.14S
STATE COLLEGE  SUNNY     64  41  42 CALM      30.14F
WILLIAMSPORT   SUNNY     69  46  43 SE5       30.12F
SELINSGROVE    SUNNY     70  40  33 N5        30.14S
FT INDIANTOWN  SUNNY     70  42  35 N2        30.14
CAPITAL CITY   SUNNY     71  41  33 E3        30.14R
HARRISBURG     MOSUNNY   70  53  54 CALM      30.13S
YORK           SUNNY     69  44  40 CALM      30.14R
$$

PAZ038>040-043-044-047-048-054-055-060>062-067>071-252300-
EASTERN PENNSYLVANIA

CITY           SKY/WX    TMP DP  RH WIND       PRES   REMARKS
SCRANTON       CLEAR     65  33  30 NE6       30.16R
MOUNT POCONO   CLEAR     60  35  39 NW7       30.16S
ALLENTOWN      CLEAR     70  39  32 NW3       30.14R
QUAKERTOWN*    CLEAR     68  39  34 N5        30.15R
READING        CLEAR     70  40  33 CALM      30.13R
LANCASTER      CLEAR     70  42  36 N3        30.14R
COATESVILLE    CLEAR     68  41  37 CALM      30.16R
POTTSTOWN      CLEAR     69  41  36 NW6       30.16R
BLUE BELL      CLEAR     68  41  37 CALM      30.13R
DOYLESTOWN     CLEAR     71  44  37 CALM      30.13R
WILLOW GROVE   NOT AVBL
NORTH PHILA    CLEAR     73  40  30 CALM      30.15R
PHILADELPHIA   PTCLDY    71  39  31 NW7       30.14R
$$




USA.gov is the U.S. government's official web portal to all federal, state and local government web resources and services.